"TOA5","AWS1","CR1000","7964","CR1000.Std.14","CPU:AWS1_114.CR1","64363","TBL110"
"TIMESTAMP","RECORD","Wind_spd_WVc(1)","Wind_spd_WVc(2)","Air_Temp_Avg","Humidity_Avg","SW_upper_Wm2_Avg","Rain_Tot","Press_Avg","Issui_Tot","Depth_cm","SR50A_Raw","Quality","Ground_Temp_Avg(1)","Ground_Temp_Avg(2)","SW_lower_Wm2_Avg","Albedo_Avg","SWC_per(1)","SWC_per(2)","Period(1)","Period(2)"
"TS","RN","","","","","","","","","","","","","","","","","","",""
"","","WVc","WVc","Avg","Avg","Avg","Tot","Avg","Tot","Smp","Smp","Smp","Avg","Avg","Avg","Avg","Smp","Smp","Smp","Smp"
"2016-12-22 00:00:00",267325,0.17,150,0.859,59.97,0,0,873.3737,0,4.592,3.131,189,2.967,3.923,0.1933987,0,51.6,59.14,33.69,35.48
"2016-12-22 00:10:00",267326,0.174,231.8,0.584,61.34,0,0,873.0386,0,5.394,3.122,192,2.94,3.921,0.007584261,0,51.6,59.14,33.69,35.48
"2016-12-22 00:20:00",267327,0.189,219.5,1.156,60.29,0,0,872.9184,0,4.29,3.136,192,2.947,3.923,0.3640445,0,51.66,59.14,33.7,35.48
"2016-12-22 00:30:00",267328,0.236,358.8,0.786,62.69,0,0,873.0681,0,4.651,3.125,191,2.938,3.914,0.1289324,0,51.6,59.14,33.69,35.48
"2016-12-22 00:40:00",267329,0.162,155.4,1.609,60.1,0,0,873.3716,0,3.321,3.139,192,2.928,3.923,0.4398871,0,51.6,59.14,33.69,35.48
"2016-12-22 00:50:00",267330,0.286,118.4,0.711,64.22,0,0,873.1882,0,5.189,3.128,192,2.928,3.923,0,0,51.6,59.2,33.69,35.5
"2016-12-22 01:00:00",267331,0.462,108.7,0.973,62.73,0,0,872.9142,0,4.298,3.129,189,2.93,3.92,0.1516852,0,51.6,59.14,33.69,35.48
"2016-12-22 01:10:00",267332,0.475,138.4,1.235,61.59,0,0,872.891,0,4.342,3.133,189,2.928,3.923,0.1251403,0,51.6,59.14,33.69,35.48
"2016-12-22 01:20:00",267333,0.544,152.1,0.313,64.3,0,0,872.754,0,4.04,3.139,189,2.931,3.923,0,0,51.6,59.14,33.69,35.48
"2016-12-22 01:30:00",267334,0.35,171.3,0.368,63.9,0,0,872.7308,0,4.245,3.132,189,2.928,3.921,0.07205047,0,51.6,59.14,33.69,35.48
"2016-12-22 01:40:00",267335,0.125,185.8,0.634,62.41,0,0,872.6845,0,4.294,3.132,189,2.928,3.909,0.00379213,0,51.6,59.14,33.69,35.48
"2016-12-22 01:50:00",267336,0.31,108.7,1.213,60.9,0,0,872.6171,0,3.948,3.132,189,2.928,3.918,0.1896065,0,51.6,59.14,33.69,35.48
"2016-12-22 02:00:00",267337,0.3,56.04,1.801,59.07,0,0,872.3747,0,4.506,3.123,191,2.928,3.923,0.4323029,0,51.6,59.14,33.69,35.48
"2016-12-22 02:10:00",267338,0.329,290.1,2.1,53.67,0,0,872.1428,0,4.208,3.124,187,2.928,3.923,0.2540727,0,51.6,59.14,33.69,35.48
"2016-12-22 02:20:00",267339,0.395,160.9,1.319,56.75,0,0,872.1428,0,4.39,3.135,190,2.928,3.922,0.04171343,0,51.6,59.14,33.69,35.48
"2016-12-22 02:30:00",267340,0.389,178.5,-0.028,64.8,0,0,872.0627,0,4.538,3.136,191,2.93,3.923,0,0,51.6,59.14,33.69,35.48
"2016-12-22 02:40:00",267341,0.199,174.3,0.086,62.28,0,0,871.9025,0,4.163,3.14,189,2.93,3.91,0,0,51.66,59.14,33.7,35.48
"2016-12-22 02:50:00",267342,0.451,171.8,-0.338,62.29,0,0,871.892,0,5.142,3.126,191,2.953,3.908,0.02275278,0,51.6,59.14,33.69,35.48
"2016-12-22 03:00:00",267343,0.295,177.5,0.761,54.29,0,0,871.8899,0,4.343,3.133,189,2.953,3.882,0.3147468,0,51.6,59.2,33.69,35.5
"2016-12-22 03:10:00",267344,0.401,187.4,0.482,54.53,0,0,871.7909,0,4.547,3.128,190,2.965,3.869,0.05308982,0,51.6,59.14,33.69,35.48
"2016-12-22 03:20:00",267345,0.293,94.1,1.395,49.54,0,0,871.8246,0,4.428,3.125,191,2.967,3.896,0.4929769,0,51.6,59.2,33.69,35.5
"2016-12-22 03:30:00",267346,0.276,155.5,1.43,50.93,0,0,871.6982,0,4.453,3.125,190,2.967,3.898,0.1478931,0,51.6,59.14,33.69,35.48
"2016-12-22 03:40:00",267347,0.423,130,1.672,51.62,0,0,871.6391,0,4.753,3.122,192,2.958,3.894,0.1858144,0,51.6,59.14,33.69,35.48
"2016-12-22 03:50:00",267348,0.167,165.4,1.855,53.9,0,0,871.6349,0,4.349,3.128,191,2.947,3.891,0.1099718,0,51.6,59.14,33.69,35.48
"2016-12-22 04:00:00",267349,0.447,106.8,1.678,60.09,0,0,871.4684,0,4.755,3.121,190,2.946,3.898,0.1441009,0,51.6,59.14,33.69,35.48
"2016-12-22 04:10:00",267350,0.386,176.2,1.855,62.45,0,0,871.3694,0,3.999,3.131,190,2.935,3.91,0.08721899,0,51.6,59.14,33.69,35.48
"2016-12-22 04:20:00",267351,0.564,84.5,1.673,63.85,0,0,871.3546,0,4.958,3.118,190,2.918,3.904,0.1516852,0,51.6,59.14,33.69,35.48
"2016-12-22 04:30:00",267352,0.656,12.17,2.808,63.59,0,0,871.3652,0,4.394,3.118,191,2.92,3.898,0.3943816,0,51.6,59.14,33.69,35.48
"2016-12-22 04:40:00",267353,0.407,85.4,2.813,64.88,0,0,871.1312,0,3.928,3.129,189,2.926,3.883,0.03033704,0,51.6,59.14,33.69,35.48
"2016-12-22 04:50:00",267354,0.3,181.1,1.34,68.89,0,0,871.1312,0,4.244,3.133,191,2.919,3.891,0,0,51.6,59.14,33.69,35.48
"2016-12-22 05:00:00",267355,0.491,175.4,0.523,73.41,0,0,871.011,0,4.64,3.132,190,2.949,3.922,0,0,51.6,59.14,33.69,35.48
"2016-12-22 05:10:00",267356,0.471,168.8,0.489,74.69,0,0,870.8193,0,4.442,3.133,190,2.9,3.923,0,0,51.6,59.14,33.69,35.48
"2016-12-22 05:20:00",267357,0.226,239.1,1.649,69.47,0.259576,0,870.7581,0,3.81,3.126,190,2.9,3.921,0.9518247,0.613,51.6,59.14,33.69,35.48
"2016-12-22 05:30:00",267358,0.357,159.9,1.514,69.45,0.4365596,0,870.678,0,5.151,3.12,190,2.904,3.913,0.2692412,0.286,51.6,59.14,33.69,35.48
"2016-12-22 05:40:00",267359,0.413,45.19,2.743,60.78,2.009747,0,870.5326,0,4.853,3.111,191,2.888,3.881,1.20969,0.531,51.6,59.14,33.69,35.48
"2016-12-22 05:50:00",267360,0.374,12.23,3.554,55.78,0.9085158,0,870.2692,0,4.846,3.105,190,2.881,3.88,1.122471,0.961,51.6,59.14,33.69,35.48
"2016-12-22 06:00:00",267361,0.858,37.5,5.19,46.35,0.7944597,0,870.1806,0,4.306,3.106,189,2.924,3.887,1.391712,1.701,51.6,59.2,33.69,35.5
"2016-12-22 06:10:00",267362,0.739,10.26,5.057,48.01,0.1691177,0,870.5347,0,4.348,3.108,190,2.91,3.949,0.09101113,0.217,51.6,59.14,33.69,35.48
"2016-12-22 06:20:00",267363,0.793,1.489,4.936,49.37,0.09832422,0,870.6317,0,4.449,3.107,190,2.896,3.909,0.01516852,0.04,51.6,59.2,33.69,35.5
"2016-12-22 06:30:00",267364,0.919,80.2,5.408,47.48,0.1691177,0,870.6232,0,4.261,3.105,188,2.96,3.884,0.05688196,0.112,51.6,59.14,33.69,35.48
"2016-12-22 06:40:00",267365,1.107,131.8,5.941,48.17,0.003932969,0,870.6169,0,4.625,3.099,190,2.933,3.881,0.09480325,0.032,51.6,59.14,33.69,35.48
"2016-12-22 06:50:00",267366,1.163,146.6,6.22,50.85,0.629275,0,870.497,0,4.677,3.098,190,2.929,3.881,0.2199436,0.229,51.6,59.14,33.69,35.48
"2016-12-22 07:00:00",267367,1.12,155.3,6.52,54.83,3.921129,0,870.337,0,4.464,3.098,192,2.927,3.88,1.475124,0.374,51.6,59.14,33.69,35.48
"2016-12-22 07:10:00",267368,0.988,145.4,6.75,56.82,8.600613,0,870.3018,0,4.534,3.097,195,2.907,3.863,4.064795,0.475,51.66,59.14,33.7,35.48
"2016-12-22 07:20:00",267369,0.907,135.2,6.518,59.83,10.12916,0,870.3051,0,4.01,3.104,195,2.877,3.871,4.727767,0.455,51.55,59.14,33.68,35.48
"2016-12-22 07:30:00",267370,1.072,162.1,6.688,63.08,12.49554,0,870.1664,0,4.464,3.096,190,2.856,3.859,6.096066,0.492,51.66,59.2,33.7,35.5
"2016-12-22 07:40:00",267371,0.622,158.5,6.937,63.98,5.681319,0,869.9847,0,4.314,3.098,191,2.845,3.871,2.498213,0.435,51.6,59.14,33.69,35.48
"2016-12-22 07:50:00",267372,1.134,148.1,6.872,65.19,9.577505,0,869.7761,0,4.522,3.095,190,2.842,3.885,4.734786,0.492,51.6,59.14,33.69,35.48
"2016-12-22 08:00:00",267373,1.032,148.1,7.192,67.94,9.95097,0,869.618,0,4.604,3.093,190,2.841,3.878,5.02666,0.505,51.6,59.14,33.69,35.48
"2016-12-22 08:10:00",267374,1.2,145.6,7.299,71.37,9.947024,0,869.5126,0,4.353,3.095,192,2.84,3.88,5.151751,0.518,51.6,59.14,33.69,35.48
"2016-12-22 08:20:00",267375,0.687,126.2,7.234,72.49,9.9195,0,869.2809,0,4.3,3.096,194,2.84,3.877,4.92809,0.499,51.6,59.14,33.69,35.48
"2016-12-22 08:30:00",267376,1.077,139,7.314,73.53,11.91677,0,869.243,0,4.049,3.098,205,2.84,3.878,5.928872,0.497,51.6,59.14,33.69,35.48
"2016-12-22 08:40:00",267377,0.991,138.8,7.397,75.03,13.79609,0,869.1882,0,4.208,3.095,190,2.84,3.878,7.043378,0.509,51.6,59.14,33.69,35.48
"2016-12-22 08:50:00",267378,0.968,126.6,7.566,76.72,15.43558,0,869.059,0,3.85,3.099,196,2.84,3.878,7.892526,0.512,51.6,59.14,33.69,35.48
"2016-12-22 09:00:00",267379,0.988,133.7,7.583,77.75,18.8443,0,868.8505,0,3.194,3.105,185,2.84,3.878,9.738665,0.516,51.6,59.14,33.69,35.48
"2016-12-22 09:10:00",267380,1.113,168,7.706,79.04,20.28327,0,868.6187,0,3.063,3.107,180,2.84,3.878,10.65226,0.525,51.6,59.14,33.69,35.48
"2016-12-22 09:20:00",267381,1.289,137.8,7.73,79.66,22.9961,0,868.4272,0,3.826,3.099,179,2.84,3.878,12.02454,0.522,51.6,59.14,33.69,35.48
"2016-12-22 09:30:00",267382,1.166,151.1,7.829,81.4,23.81781,0,868.2188,0,3.758,3.098,174,2.84,3.878,13.19212,0.554,51.6,59.14,33.69,35.48
"2016-12-22 09:40:00",267383,1.393,140,7.977,81.7,28.78739,0,868.0102,0,3.125,3.104,180,2.837,3.878,15.59551,0.543,51.6,59.14,33.69,35.48
"2016-12-22 09:50:00",267384,1.502,144.7,8.13,81.8,63.66094,0,867.8008,0,3.057,3.103,187,2.833,3.878,33.67023,0.529,51.6,59.14,33.69,35.48
"2016-12-22 10:00:00",267385,1.167,148.3,8.17,82.6,51.46896,0,867.6647,0,2.521,3.109,188,2.822,3.878,27.21822,0.529,51.6,59.14,33.69,35.48
"2016-12-22 10:10:00",267386,0.876,134.1,7.893,84.8,51.56725,0,867.4285,0,2.995,3.106,169,2.807,3.878,26.79744,0.52,51.6,59.14,33.69,35.48
"2016-12-22 10:20:00",267387,0.947,92.3,7.705,87.2,40.33409,0,867.2468,0,3.097,3.106,174,2.831,3.874,20.78491,0.515,51.6,59.14,33.69,35.48
"2016-12-22 10:30:00",267388,0.857,110.7,7.382,91.1,45.65845,0,867.0297,0,2.647,3.112,191,2.819,3.858,22.81911,0.5,51.6,59.14,33.69,35.48
"2016-12-22 10:40:00",267389,0.767,6.845,7.278,93.9,74.92489,0,866.8359,0,3.238,3.107,190,2.8,3.838,37.14808,0.495,51.6,59.14,33.69,35.48
"2016-12-22 10:50:00",267390,0.696,16.54,7.312,97.8,155.8053,0,866.5579,0,2.925,3.109,173,2.771,3.816,74.69229,0.479,51.6,59.14,33.69,35.48
"2016-12-22 11:00:00",267391,0.966,15.01,7.281,98.8,167.9345,0,866.4442,0,2.369,3.115,180,2.726,3.803,79.50516,0.473,51.55,59.14,33.68,35.48
"2016-12-22 11:10:00",267392,0.884,9.71,7.43,98.4,161.1459,0,866.4083,0,2.473,3.114,181,2.7,3.802,76.90887,0.477,51.6,59.14,33.69,35.48
"2016-12-22 11:20:00",267393,0.824,91.8,7.365,98.1,142.8145,0,866.362,0,2.605,3.112,189,2.699,3.795,67.89519,0.475,51.55,59.14,33.68,35.48
"2016-12-22 11:30:00",267394,1.059,105.1,7.73,95.2,117.8115,0,866.1514,0,1.983,3.116,178,2.702,3.79,55.69928,0.473,51.6,59.14,33.69,35.48
"2016-12-22 11:40:00",267395,0.938,144.5,7.878,91.8,90.80168,0,865.9029,0,2.064,3.114,174,2.709,3.789,44.07253,0.485,51.6,59.14,33.69,35.48
"2016-12-22 11:50:00",267396,0.975,176,8.07,91.9,141.9581,0,865.5258,0,1.508,3.119,180,2.709,3.789,67.30993,0.475,51.6,59.14,33.69,35.48
"2016-12-22 12:00:00",267397,0.867,144.3,8.13,92.1,118.4392,0,865.2921,0,0.876,3.125,185,2.689,3.788,54.7324,0.462,51.6,59.14,33.69,35.48
"2016-12-22 12:10:00",267398,0.751,102.8,7.995,94.2,71.70415,0,865.2626,0,1.529,3.12,222,2.692,3.788,33.42378,0.465,51.6,59.14,33.69,35.48
"2016-12-22 12:20:00",267399,1.033,49.07,7.658,97.9,43.35892,0,865.3868,0.5,1.039,3.127,187,2.711,3.788,20.20585,0.465,51.6,59.14,33.69,35.48
"2016-12-22 12:30:00",267400,1.535,125.8,7.474,100,24.08873,0,865.212,0,0.864,3.128,204,2.728,3.788,11.05789,0.459,51.66,59.14,33.7,35.48
"2016-12-22 12:40:00",267401,1.221,150.8,7.561,100,22.00175,0,864.8792,0,-0.027,3.138,200,2.744,3.788,9.970291,0.452,51.71,59.14,33.72,35.48
"2016-12-22 12:50:00",267402,1.359,49.85,7.422,100,30.444,0,864.7697,0,1.343,3.124,189,2.747,3.787,13.70678,0.442,51.77,59.14,33.73,35.48
"2016-12-22 13:00:00",267403,1.386,128.2,7.752,100,113.5971,0,864.3442,0,1.712,3.117,170,2.748,3.788,50.89737,0.449,51.99,59.2,33.79,35.5
"2016-12-22 13:10:00",267404,1.825,149.7,8.44,89.7,146.4268,0,863.8219,0,1.444,3.117,171,2.735,3.788,62.90265,0.429,52.1,59.2,33.81,35.5
"2016-12-22 13:20:00",267405,1.39,154.3,8.62,82.9,81.9622,0,863.4954,0,1.322,3.117,186,2.742,3.788,36.1712,0.441,52.32,59.2,33.87,35.5
"2016-12-22 13:30:00",267406,0.896,29.38,8.34,85.2,41.11866,0,863.4638,0,1.383,3.12,187,2.743,3.788,18.17465,0.443,52.38,59.2,33.88,35.5
"2016-12-22 13:40:00",267407,0.821,353.2,8.03,88.6,17.20679,0,863.6154,0,1.558,3.119,189,2.751,3.783,7.848146,0.456,52.44,59.2,33.89,35.5
"2016-12-22 13:50:00",267408,0.969,250.5,8.05,87.2,20.65759,0,863.3796,0.5,1.172,3.124,194,2.751,3.788,9.57239,0.466,52.55,59.26,33.92,35.51
"2016-12-22 14:00:00",267409,0.922,168.8,8.08,88.4,22.25721,0,863.2216,0,0.823,3.126,188,2.751,3.787,9.867974,0.442,52.66,59.32,33.95,35.52
"2016-12-22 14:10:00",267410,0.521,84.6,7.964,90.7,21.96244,0,862.8846,0,1.277,3.122,192,2.751,3.777,9.428387,0.429,52.77,59.32,33.98,35.52
"2016-12-22 14:20:00",267411,0.736,160.5,8.21,89.8,21.95851,0,862.636,0,0.421,3.129,192,2.751,3.764,9.682285,0.441,52.83,59.38,33.99,35.54
"2016-12-22 14:30:00",267412,1.182,148.7,8.36,91,19.16801,0,862.3834,0,0.599,3.127,190,2.741,3.751,8.261207,0.43,52.88,59.44,34,35.55
"2016-12-22 14:40:00",267413,0.726,79.26,8.1,95.5,15.94517,0,862.596,0.5,0.368,3.13,177,2.705,3.736,6.313381,0.395,53,59.5,34.03,35.56
"2016-12-22 14:50:00",267414,0.675,276.4,8.16,99.6,13.17039,0,862.4823,0,0.522,3.128,192,2.615,3.723,4.998409,0.375,53.05,59.56,34.04,35.58
"2016-12-22 15:00:00",267415,0.844,328.6,8.12,100,12.90313,0,862.417,0,0.62,3.128,198,2.587,3.713,4.801353,0.371,53.16,59.67,34.07,35.6
"2016-12-22 15:10:00",267416,0.822,10.58,8.06,100,12.65945,0,862.4655,0.5,0.392,3.13,182,2.606,3.722,4.501978,0.356,53.22,59.73,34.08,35.62
"2016-12-22 15:20:00",267417,0.667,37.33,8.33,100,11.73584,0,862.0211,0,0.477,3.127,170,2.619,3.713,4.138183,0.35,53.39,59.91,34.13,35.66
"2016-12-22 15:30:00",267418,1.078,146.9,8.57,100,15.77617,0,861.505,0.5,0.428,3.127,170,2.622,3.703,5.521367,0.346,53.45,60.15,34.14,35.71
"2016-12-22 15:40:00",267419,0.996,342.5,8.43,100,7.349637,0,861.4924,0,0.298,3.129,187,2.624,3.682,2.205515,0.298,53.56,60.38,34.17,35.77
"2016-12-22 15:50:00",267420,1.012,57.73,8.39,100,9.660645,0,861.3534,0.5,0.116,3.132,187,2.632,3.695,2.940686,0.299,53.67,60.62,34.19,35.82
"2016-12-22 16:00:00",267421,1.575,168.3,8.4,100,7.974553,0,861.444,0,-0.591,3.138,190,2.643,3.688,2.2472,0.267,53.73,60.8,34.21,35.86
"2016-12-22 16:10:00",267422,1.459,126,8.17,95.7,2.558617,0,861.6609,0,-0.545,3.139,193,2.635,3.671,0.08336998,0.021,53.78,61.1,34.22,35.93
"2016-12-22 16:20:00",267423,1.815,118.8,8.26,85.8,0.9354083,0,861.6756,0,-0.895,3.141,185,2.654,3.665,0,0,53.84,61.22,34.23,35.96
"2016-12-22 16:30:00",267424,0.659,64.08,7.913,87.2,0.1061177,0,861.3365,0,-0.856,3.144,187,2.622,3.666,0,0,53.9,61.46,34.25,36.01
"2016-12-22 16:40:00",267425,1.026,140.6,7.814,87.4,0,0,861.1512,0,-0.954,3.144,186,2.534,3.665,0.1288445,0,53.9,61.58,34.25,36.04
"2016-12-22 16:50:00",267426,0.795,163.1,7.848,87.6,0,0,860.9511,0,-0.755,3.143,182,2.53,3.667,0.1288445,0,53.95,61.82,34.26,36.09
"2016-12-22 17:00:00",267427,0.818,14.68,7.645,91.2,0,0,860.97,0,-1.062,3.147,175,2.536,3.675,0,0,54.01,62,34.27,36.13
"2016-12-22 17:10:00",267428,0.851,153.6,7.621,92.8,0.01179086,0,860.8542,0.5,-1.157,3.146,182,2.548,3.7,0.06063271,0.048,54.01,62.18,34.27,36.17
"2016-12-22 17:20:00",267429,1.262,166,8.21,89.8,0.06681488,0,860.4182,0,-0.741,3.139,192,2.561,3.701,0.2463204,0.209,54.07,62.3,34.29,36.2
"2016-12-22 17:30:00",267430,1.128,153.2,8.5,88.8,0.03930287,0,860.1023,0,-1.704,3.148,183,2.572,3.702,0.09094907,0.193,54.07,62.42,34.29,36.23
"2016-12-22 17:40:00",267431,1.139,148.3,8.66,88.9,0.01572115,0,859.9443,0.5,-1.221,3.143,194,2.576,3.702,0.05684317,0.016,54.07,62.54,34.29,36.25
"2016-12-22 17:50:00",267432,1.346,180.2,8.61,90.6,0,0,859.8327,0,-0.692,3.139,170,2.577,3.701,0,0,54.18,62.6,34.32,36.27
"2016-12-22 18:00:00",267433,1.801,136.4,8.97,89.2,0,0,859.4051,0,-1.109,3.139,180,2.578,3.702,0.04547453,0,54.18,62.78,34.32,36.31
"2016-12-22 18:10:00",267434,1.813,162.9,9.38,85.5,0,0,859.1903,0,-1.484,3.141,188,2.578,3.701,0.208425,0,54.24,62.9,34.33,36.34
"2016-12-22 18:20:00",267435,1.607,162.1,9.38,85.7,0,0,859.0176,0.5,-1.792,3.145,194,2.578,3.702,0.1705295,0,54.29,62.9,34.34,36.34
"2016-12-22 18:30:00",267436,1.43,157.9,9.19,88.4,0,0,858.7606,0,-1.915,3.145,212,2.578,3.701,0,0,54.29,63.02,34.34,36.36
"2016-12-22 18:40:00",267437,1.393,163.3,9.6,86.1,0.003930287,0,858.5626,0.5,-2.29,3.147,185,2.578,3.691,0,0,54.35,63.2,34.36,36.4
"2016-12-22 18:50:00",267438,1.388,160.2,9.59,87.3,0,0,858.3183,0,-1.536,3.142,227,2.577,3.688,0.003789545,0,54.41,63.32,34.37,36.43
"2016-12-22 19:00:00",267439,1.691,150.7,9.68,87.8,0,0,858.2804,0.5,-1.936,3.144,198,2.557,3.662,0,0,54.41,63.69,34.37,36.51
"2016-12-22 19:10:00",267440,2.11,161.8,9.92,87.2,0.007860574,0,857.8992,0,-2.746,3.151,173,2.525,3.643,0,0,54.46,64.36,34.38,36.66
"2016-12-22 19:20:00",267441,1.794,149.8,10.16,86.2,0,0,857.499,0.5,-2.95,3.153,182,2.494,3.598,0,0,54.52,64.97,34.4,36.8
"2016-12-22 19:30:00",267442,1.545,163.7,9.94,89.2,0.01179086,0,857.5369,0.5,-2.848,3.152,192,2.478,3.566,0,0,54.58,65.77,34.41,36.97
"2016-12-22 19:40:00",267443,2.112,160.3,10.1,89.5,0,0,857.282,0,-2.332,3.145,182,2.478,3.544,0,0,54.58,65.77,34.41,36.97
"2016-12-22 19:50:00",267444,1.007,139.9,10.2,88.6,0,0,856.9135,0.5,-3.255,3.156,194,2.497,3.531,0,0,54.69,65.89,34.44,37
"2016-12-22 20:00:00",267445,0.79,125.6,9.68,94.4,0.02358172,0,856.8271,0.5,-3.084,3.156,187,2.473,3.547,0,0,54.75,65.89,34.45,37
"2016-12-22 20:10:00",267446,0.932,17.35,9.46,98.4,0.03930287,0,856.9977,1,-3.086,3.157,189,2.455,3.57,0,0,54.8,65.96,34.46,37.01
"2016-12-22 20:20:00",267447,0.836,7.413,9.43,100,0.1925841,0,856.6691,1.5,-3.848,3.164,187,2.472,3.573,0,0,54.92,66.02,34.49,37.03
"2016-12-22 20:30:00",267448,0.544,345.6,9.4,100,0.1257692,0,856.4227,1.5,-3.066,3.158,177,2.393,3.586,0,0,55.03,65.96,34.52,37.01
"2016-12-22 20:40:00",267449,0.833,31.37,9.29,100,0.2711898,0,856.2563,1.5,-3.648,3.163,182,2.268,3.615,0,0,55.26,66.02,34.57,37.03
"2016-12-22 20:50:00",267450,0.621,41.1,9.47,100,0.3733773,0,855.913,2,-3.898,3.164,178,2.172,3.527,0,0,55.72,65.89,34.68,37
"2016-12-22 21:00:00",267451,0.902,43.68,9.58,100,0.3340744,0,856.0352,1.5,-3.259,3.157,177,2.117,3.479,0,0,56.06,65.89,34.76,37
"2016-12-22 21:10:00",267452,1.345,147.4,9.98,100,0.341935,0,855.6013,1,-3.122,3.153,189,2.052,3.509,0.01136863,0.024,56,65.89,34.75,37
"2016-12-22 21:20:00",267453,1.306,135.7,10.38,100,0.2711898,0,855.3232,0.5,-3.649,3.156,178,2.122,3.529,0,0,55.6,65.89,34.65,37
"2016-12-22 21:30:00",267454,1.399,125.4,10.59,100,0.2083052,0,855.0789,0,-3.824,3.157,196,2.095,3.464,0,0,55.49,65.89,34.63,37
"2016-12-22 21:40:00",267455,1.685,157.1,10.72,99.2,0.06681488,0,854.5187,1,-4.612,3.164,187,2.167,3.443,0,0,55.37,65.89,34.6,37
"2016-12-22 21:50:00",267456,1.634,159.5,10.8,97.9,0.08646631,0,853.9457,0.5,-4.559,3.163,182,2.192,3.428,0,0,55.37,65.89,34.6,37
"2016-12-22 22:00:00",267457,1.274,130.5,10.8,99.1,0.1257692,0,854.028,0.5,-3.902,3.158,189,2.196,3.404,0,0,55.37,65.89,34.6,37
"2016-12-22 22:10:00",267458,1.415,93.7,10.81,100,0.07860574,0,854.1332,1,-3.315,3.152,230,2.151,3.401,0.003789545,0,55.37,65.96,34.6,37.01
"2016-12-22 22:20:00",267459,1.088,48.24,10.71,100,0.0589543,0,854.1122,0.5,-3.339,3.152,186,2.09,3.426,0,0,55.37,65.96,34.6,37.01
"2016-12-22 22:30:00",267460,1.192,45.56,10.55,100,0,0,854.1922,0,-3.726,3.157,185,2.061,3.425,0,0,55.32,65.96,34.59,37.01
"2016-12-22 22:40:00",267461,0.347,352.5,10.32,100,0.04323316,0,854.3376,2.5,-3.427,3.156,189,2.068,3.361,0,0,55.37,65.89,34.6,37
"2016-12-22 22:50:00",267462,0.422,158.7,9.86,100,0,0,854.148,2.5,-3.441,3.16,183,2.06,3.282,0,0,56.46,65.96,34.86,37.01
"2016-12-22 23:00:00",267463,0.403,304.9,9.27,100,0,0,853.6025,2,-3.601,3.164,173,1.916,3.312,0,0,56.58,65.89,34.88,37
"2016-12-22 23:10:00",267464,0.386,183,8.91,100,0,0,853.891,1.5,-3.657,3.166,191,1.931,3.321,0,0,56.41,65.89,34.84,37
"2016-12-22 23:20:00",267465,0.416,306.7,8.5,100,0,0,853.7014,1.5,-3.639,3.169,185,1.932,3.281,0,0,56.35,65.89,34.83,37
"2016-12-22 23:30:00",267466,0.447,213.4,8.09,100,0,0,854.3059,1.5,-3.365,3.168,173,1.931,3.23,0,0,56.23,65.89,34.8,37
"2016-12-22 23:40:00",267467,0.541,202.7,7.668,100,0,0,854.7293,1,-3.396,3.171,171,1.931,3.228,0,0,56.18,65.89,34.79,37
"2016-12-22 23:50:00",267468,0.432,49.7,7.441,100,0,0,854.4808,0.5,-3.396,3.171,185,1.928,3.262,0,0,55.72,65.83,34.68,36.99
